GFSSW_925_rhum_000.txt.gz
RH
50 28 18 13 9 8 7 7 6 6 6 5 6 5 6 7 9 42 22 13 10 10 43 36 34 33 29 22 22 21 20 18 18 21 23 23 27 29 28 38 37 34 32 37 47
88 46 21 16 10 9 9 8 6 6 5 5 5 5 6 7 36 18 13 15 12 11 29 26 22 27 19 14 16 20 19 17 14 17 21 24 24 31 36 37 37 41 35 41 48
95 85 38 17 13 10 10 9 8 6 5 5 5 5 6 16 25 8 15 11 11 15 16 17 12 18 11 8 10 14 19 16 16 16 17 23 26 27 28 36 31 40 42 42 46
64 39 29 24 15 11 11 10 9 6 6 5 5 5 11 55 11 10 15 12 9 32 16 13 9 11 7 8 8 14 12 13 14 17 19 22 22 27 27 24 24 30 37 42 44
46 23 19 17 14 11 10 10 9 7 5 8 8 8 48 21 11 14 12 13 20 28 12 10 7 8 7 7 8 11 10 10 11 16 17 20 24 25 28 27 25 31 39 41 41
91 52 20 14 11 10 10 10 8 7 6 10 34 20 42 15 10 18 27 32 22 18 11 8 6 5 6 7 9 8 9 10 10 15 18 23 25 27 26 24 31 36 40 39 40
98 73 28 20 13 10 8 7 6 6 8 13 84 65 33 12 12 14 17 16 20 16 10 8 6 6 6 8 8 9 12 18 16 17 22 21 32 31 26 29 36 38 39 39 39
51 31 23 23 16 11 7 5 5 14 25 92 75 65 20 16 19 19 18 16 17 19 13 10 7 7 6 8 9 11 12 16 18 21 23 23 22 27 27 32 38 38 39 40 40
46 25 19 17 13 12 6 8 23 55 86 85 76 50 16 21 19 15 17 12 12 14 12 9 8 9 7 10 12 12 15 14 23 21 27 26 21 24 27 30 33 38 37 39 41
87 33 20 14 10 8 8 19 56 97 94 84 68 45 21 11 15 13 17 10 10 12 12 10 10 9 9 9 14 15 15 14 16 24 25 27 21 27 28 28 29 36 36 38 38
34 27 20 15 10 10 20 32 32 35 51 18 11 15 10 10 13 11 14 9 8 10 9 8 8 9 9 9 10 10 14 14 13 18 24 22 22 22 32 30 29 32 36 36 34
36 30 21 12 11 21 33 12 17 18 12 7 7 8 8 9 11 8 11 12 10 11 8 8 8 6 6 8 10 11 13 14 13 19 21 19 22 21 24 32 28 30 33 36 34
32 37 28 12 12 44 26 18 23 17 12 7 7 8 9 9 12 10 9 11 11 10 8 9 6 5 6 7 10 12 13 14 16 21 21 19 24 21 19 26 29 27 27 31 34
40 37 31 17 26 30 19 24 27 22 13 9 12 12 14 12 14 10 8 10 10 10 8 7 5 6 7 9 9 13 10 12 14 20 25 20 23 17 16 25 29 30 28 27 32
48 24 36 53 47 25 21 24 24 21 17 10 12 12 13 14 12 12 8 8 10 10 9 9 6 7 7 7 7 11 9 11 13 17 20 22 24 17 18 20 23 27 28 26 25
64 44 43 44 54 36 29 29 26 21 17 10 11 14 14 12 11 13 11 8 8 9 10 9 6 5 6 5 6 8 10 12 13 14 22 19 20 16 15 18 15 17 23 26 24
63 44 44 60 20 33 32 14 15 15 11 10 11 11 10 9 10 12 14 13 12 17 15 10 8 6 4 7 6 9 13 20 21 20 21 16 19 17 11 10 11 10 15 23 23
61 37 50 49 45 43 26 9 16 10 10 10 11 11 12 9 9 10 12 12 10 11 11 14 12 8 6 5 8 10 11 16 24 19 17 15 20 15 11 10 9 8 12 18 22
60 37 32 38 56 45 18 10 10 9 9 7 8 11 11 10 9 10 11 11 9 10 13 12 13 7 6 6 6 10 12 10 13 12 13 11 15 11 10 12 11 12 14 16 21
70 42 26 38 62 41 18 13 7 5 7 9 11 9 10 8 10 10 10 9 10 9 10 12 15 9 7 6 6 7 8 13 12 23 21 15 14 15 13 10 8 11 15 16 19
55 28 33 64 59 34 20 11 8 5 6 9 9 9 10 10 11 10 10 9 9 9 11 11 13 10 9 8 7 8 9 11 11 13 17 18 14 10 11 11 10 8 13 13 17
45 26 36 50 35 20 19 13 13 8 5 5 7 7 8 10 12 11 11 10 9 9 13 12 13 16 8 6 5 6 9 11 14 21 14 14 12 7 8 8 8 7 7 7 14
47 29 22 33 24 15 16 16 14 14 8 7 6 7 7 9 13 11 9 7 7 10 12 11 15 19 16 7 6 6 7 9 10 12 19 17 14 7 8 9 8 13 12 12 19
46 29 18 32 22 32 28 32 25 14 14 10 9 8 7 10 10 12 12 8 10 9 44 18 12 16 15 14 8 9 7 7 8 12 14 13 12 10 8 9 8 9 13 15 23
43 32 43 27 31 46 46 39 32 23 17 15 16 15 12 13 13 14 13 12 14 22 20 24 27 17 13 11 9 9 7 7 8 8 13 11 11 10 10 9 8 7 8 14 24
65 53 55 52 45 40 34 34 33 25 26 25 22 14 13 16 15 14 12 13 12 13 14 16 29 22 21 14 12 12 10 7 7 7 8 8 10 7 8 8 8 8 7 14 24
58 55 59 44 37 40 31 28 30 34 29 24 26 30 28 22 20 18 18 20 19 18 20 22 25 32 28 17 16 18 13 10 8 6 7 9 8 7 7 8 9 9 12 16 22

GFSSW_925_rhum_003.txt.gz
RH
44 21 13 11 10 10 10 9 8 7 6 6 5 5 6 6 8 52 22 12 13 10 18 28 27 19 20 16 14 12 22 16 16 27 15 14 16 17 18 24 24 24 29 35 41
72 33 16 13 11 10 10 9 8 7 6 6 5 5 5 6 30 15 10 12 11 10 24 18 16 15 16 14 14 15 42 18 11 18 15 14 14 18 21 25 26 28 28 38 42
95 68 25 15 12 10 9 9 8 7 7 6 5 5 5 9 20 8 10 8 12 12 12 13 11 13 15 11 10 12 29 18 12 12 13 14 15 15 19 25 25 30 32 36 40
97 90 55 26 12 10 10 9 8 7 6 6 5 5 7 39 14 13 9 10 11 25 15 10 10 10 13 11 8 12 14 13 12 13 14 14 14 16 16 17 19 24 27 33 37
96 50 24 20 15 11 10 10 8 6 6 5 5 6 41 19 10 18 12 12 23 19 16 9 10 8 11 8 8 10 10 10 10 12 12 14 15 15 16 16 18 23 27 32 34
85 34 23 17 13 11 10 10 8 6 5 4 5 16 42 16 7 12 13 19 15 15 10 8 8 6 7 8 8 8 9 9 9 10 13 16 16 17 15 16 20 26 29 29 31
53 28 24 19 12 9 8 7 6 5 5 7 13 62 23 13 8 9 14 12 11 11 9 7 6 5 5 7 6 8 10 10 11 10 13 13 18 17 15 19 22 26 29 28 29
33 28 26 19 12 9 7 5 5 8 20 29 40 53 20 10 11 9 10 10 10 10 9 6 5 5 6 6 7 9 9 12 11 10 11 14 20 18 16 18 21 25 28 29 29
51 29 25 14 10 8 7 7 12 31 52 51 66 37 15 15 13 11 11 11 9 8 10 8 7 6 6 8 9 10 12 12 14 11 14 16 21 18 18 18 20 23 26 28 29
57 25 28 15 10 8 5 26 50 80 84 66 46 32 16 11 9 10 10 9 7 9 9 8 7 8 7 9 13 14 12 12 17 12 15 17 21 18 18 19 17 20 22 27 28
58 38 22 17 11 10 17 25 30 41 38 16 14 11 9 8 11 9 10 8 6 9 10 7 7 8 8 9 9 10 11 11 10 10 14 17 16 18 19 20 19 18 20 24 26
62 51 25 20 11 19 37 12 11 12 11 7 7 7 6 6 7 8 8 9 7 10 8 7 8 6 7 8 9 9 10 12 10 11 12 15 17 14 20 21 19 19 19 21 23
64 65 44 18 12 38 14 14 13 12 10 6 5 6 5 5 6 6 5 8 8 8 8 6 5 5 6 8 10 10 10 11 11 16 15 14 18 15 15 19 20 18 18 18 20
70 66 58 27 20 17 13 16 15 12 12 7 7 6 6 6 7 5 6 6 9 8 7 7 4 5 6 8 8 11 9 10 10 17 22 13 21 17 14 16 21 20 19 18 19
75 65 60 40 45 21 13 13 13 12 15 7 8 7 8 10 9 8 7 6 9 8 7 7 6 6 6 6 7 9 8 10 10 13 27 14 16 17 13 15 17 20 20 18 18
70 61 57 37 40 29 20 17 14 15 16 8 8 11 11 9 8 9 8 6 6 8 7 6 4 4 5 5 6 7 8 10 10 12 17 15 17 18 18 14 13 14 18 19 18
68 58 53 59 19 18 17 13 14 15 8 8 8 8 8 8 8 10 10 9 10 11 11 8 6 5 4 6 6 7 10 14 16 16 16 12 17 29 13 10 11 11 11 16 19
58 43 48 39 29 26 20 12 18 10 9 6 6 8 8 7 7 8 10 10 8 8 8 11 11 7 5 5 6 8 9 13 22 18 15 12 16 13 10 9 8 8 8 10 17
63 34 25 20 25 27 16 13 13 11 7 7 7 8 9 7 7 7 9 10 8 8 10 9 11 6 5 5 5 7 9 8 11 11 13 11 11 9 10 10 9 8 8 8 14
73 45 23 19 34 31 21 17 10 7 5 6 9 7 10 9 8 8 8 7 8 7 6 8 11 7 5 5 4 5 6 10 10 21 19 12 12 12 12 11 9 9 8 8 10
63 24 22 26 36 31 24 16 12 8 6 6 8 9 7 7 7 8 8 6 6 7 7 7 9 9 7 7 7 6 6 8 9 11 15 16 13 8 10 11 10 9 8 8 10
40 32 22 28 34 24 25 18 17 10 7 6 6 7 9 8 8 8 9 7 6 6 8 8 9 13 10 6 5 5 6 6 12 18 12 12 11 7 7 8 8 8 7 7 10
43 31 22 17 24 18 16 15 14 13 11 9 8 6 6 8 10 9 8 6 7 8 9 8 12 15 14 9 7 7 6 5 6 10 18 15 12 7 7 7 8 8 8 8 9
50 34 18 17 17 17 18 17 16 11 13 12 12 9 7 8 7 9 9 7 6 7 26 14 11 14 14 14 7 8 7 5 6 9 11 11 12 10 9 9 8 8 8 9 9
55 38 26 33 23 40 41 50 32 38 20 16 16 13 11 11 9 9 9 8 7 12 13 12 17 13 11 10 9 7 6 5 6 7 10 10 10 10 10 9 8 7 8 8 8
78 54 40 38 35 36 39 36 26 27 27 31 21 16 13 15 13 10 9 10 12 9 12 12 20 16 14 10 9 10 8 6 6 6 6 7 9 7 7 8 8 8 8 8 8
79 68 56 43 35 29 24 31 29 18 20 30 32 41 31 19 22 20 19 11 10 14 16 19 20 26 26 16 15 16 11 9 8 7 6 8 7 6 8 9 9 8 8 9 10

GFSSW_925_rhum_009.txt.gz
RH
94 55 24 16 14 12 11 10 9 8 8 7 6 6 6 6 6 22 36 15 12 10 13 20 35 30 32 33 33 35 54 63 44 27 19 18 30 29 28 44 43 46 44 50 50
60 35 24 21 16 11 10 9 9 8 7 7 7 6 6 7 26 28 6 8 12 15 22 16 19 26 27 24 18 22 40 34 25 21 17 16 28 32 34 44 51 46 45 50 50
36 26 22 21 17 12 9 8 8 7 7 6 6 6 6 14 51 15 11 11 9 12 17 12 10 14 23 20 16 17 27 23 19 18 14 17 18 20 32 43 44 51 52 50 52
36 22 18 17 15 12 10 8 8 7 6 6 5 6 6 36 19 12 8 8 9 10 19 12 9 12 16 18 14 18 16 17 19 18 16 16 16 21 22 34 34 40 48 48 53
50 32 19 17 16 15 14 11 9 7 5 5 6 7 17 41 26 9 10 8 9 13 19 14 12 12 16 15 14 16 15 13 14 17 15 14 16 21 22 32 33 34 38 47 50
54 48 33 20 16 15 12 9 8 6 6 5 8 26 66 29 6 8 10 10 14 18 15 13 12 11 13 14 14 12 12 14 13 13 17 17 16 19 24 32 35 36 38 39 51
53 46 41 35 22 16 11 8 6 5 6 9 22 76 49 20 7 13 11 14 13 13 12 11 11 14 11 14 11 10 12 10 10 10 13 19 34 19 23 25 37 40 39 38 38
54 45 32 25 20 17 13 8 5 5 10 23 74 75 56 8 6 8 9 9 12 11 11 8 9 12 10 10 10 12 11 13 11 11 11 19 40 25 19 27 35 37 38 38 40
62 54 40 23 20 16 11 7 7 14 23 53 82 74 45 14 16 7 8 9 9 9 10 9 8 11 10 12 15 12 14 14 12 10 14 17 31 18 16 26 30 34 34 37 39
58 52 48 34 23 17 13 8 25 41 60 75 57 53 38 18 10 10 8 9 8 9 9 10 12 13 12 13 18 16 14 12 14 13 15 26 29 25 20 20 28 30 30 33 36
70 59 48 36 23 17 26 28 38 45 51 40 35 24 12 10 9 10 8 8 8 9 14 11 16 16 13 10 10 11 12 12 11 13 17 32 36 31 22 26 29 30 30 32 33
70 63 55 34 19 16 37 49 22 11 16 10 9 17 19 18 16 9 8 11 11 15 12 12 16 13 10 10 9 10 12 13 11 13 17 34 33 25 20 20 22 25 30 30 31
63 62 53 42 20 33 28 22 14 10 16 11 9 9 8 12 19 14 10 11 12 14 11 13 13 11 10 11 12 11 13 13 13 12 15 32 43 38 26 22 25 23 23 27 29
61 58 56 54 28 34 32 21 15 11 21 13 8 7 7 7 11 11 9 10 12 12 11 12 10 10 10 9 9 15 10 11 11 12 20 20 36 46 33 36 37 31 22 23 27
63 57 54 54 75 59 26 22 20 14 30 9 7 5 6 7 8 11 9 9 12 13 10 10 11 11 10 7 7 11 10 11 11 13 24 21 26 32 34 41 44 32 20 20 22
66 60 53 60 60 30 28 25 20 24 28 11 6 6 7 7 7 5 10 7 7 10 11 11 8 7 9 7 5 6 10 11 12 13 19 23 23 30 31 40 43 25 21 19 20
58 52 52 78 58 21 26 27 25 27 12 10 9 8 6 7 7 6 7 8 9 11 12 9 9 8 6 8 7 6 10 16 19 20 23 16 24 31 19 20 21 22 20 20 19
62 49 43 56 48 41 42 29 34 18 15 10 10 9 10 8 7 6 9 9 8 8 13 14 13 9 8 7 8 7 8 13 26 24 20 16 18 18 16 18 18 22 19 20 21
59 63 54 32 36 38 40 47 25 19 14 12 13 12 11 10 10 8 10 9 8 7 13 12 13 9 7 7 6 8 9 7 12 17 23 16 14 12 17 17 17 19 21 20 18
90 67 54 25 31 32 42 44 25 15 16 19 24 15 19 14 12 12 10 9 10 9 9 12 19 10 8 7 6 6 7 10 8 15 21 16 19 20 18 20 22 23 22 20 20
83 52 28 22 21 35 46 37 28 20 19 20 22 22 19 17 14 14 11 9 8 9 8 8 11 11 11 10 8 8 8 8 10 10 16 22 18 14 18 24 24 20 18 18 20
58 61 28 30 38 29 34 32 33 27 23 24 22 23 23 20 18 15 13 10 7 8 10 9 10 14 12 9 7 7 10 8 15 15 18 14 14 12 9 17 19 18 19 15 21
67 54 37 29 42 36 29 26 24 22 20 21 23 22 21 23 27 19 15 9 7 8 10 10 11 16 16 11 9 9 8 9 7 14 17 26 15 8 7 11 10 13 17 18 20
81 63 36 35 30 33 46 55 56 39 34 28 28 30 31 34 28 30 24 13 8 7 32 22 12 13 16 16 12 16 9 8 8 10 10 10 10 12 12 18 18 16 17 14 18
88 68 43 69 59 58 55 68 52 46 35 29 43 47 42 55 46 41 45 45 34 28 17 15 15 12 12 12 11 9 11 9 10 9 12 10 9 10 10 21 22 18 23 20 20
95 79 68 69 56 50 46 38 34 30 43 44 41 52 46 77 72 72 57 55 52 34 35 28 27 24 22 14 11 11 10 10 8 8 9 9 10 11 11 10 20 20 17 14 22
71 72 92 80 61 56 51 43 51 39 42 36 45 39 54 42 43 53 43 40 43 46 40 34 36 34 23 19 18 18 11 11 12 8 9 11 9 10 11 13 16 21 20 13 14

GFSSW_925_rhum_015.txt.gz
RH
95 78 54 38 26 22 16 16 16 14 11 9 7 6 6 6 6 18 35 7 7 21 48 83 80 75 70 77 58 65 72 62 47 46 47 48 58 48 45 58 51 52 61 61 71
96 94 82 61 46 32 23 16 15 17 13 9 7 6 6 8 32 51 5 7 8 19 60 87 83 66 76 71 66 68 68 51 35 33 48 47 49 52 57 59 60 61 57 64 66
96 94 83 80 71 51 34 23 18 15 14 13 8 6 8 18 50 13 8 13 13 11 29 48 46 48 50 43 63 59 64 39 32 26 38 46 49 46 60 64 63 70 67 61 68
90 79 73 80 79 70 60 42 26 18 15 14 14 8 16 39 10 9 11 9 16 18 23 25 22 27 34 47 41 36 40 39 29 19 39 46 44 52 52 51 51 55 59 60 65
60 56 56 54 56 58 48 38 30 24 17 14 34 14 43 48 25 5 8 15 16 23 26 22 20 20 17 17 18 34 28 20 18 18 34 39 48 49 52 47 49 53 57 62 65
58 54 52 50 49 48 39 30 28 26 21 23 58 47 57 13 7 6 6 17 14 30 28 22 19 17 15 16 17 17 18 17 16 14 31 43 45 47 48 48 55 57 61 62 62
60 56 53 51 46 38 31 31 24 19 23 51 86 77 84 13 7 17 14 11 18 16 28 22 16 14 15 16 14 15 17 14 14 13 29 34 46 52 45 53 60 61 61 61 60
65 59 55 53 49 39 28 21 20 20 30 49 95 92 48 8 10 6 7 7 17 18 15 13 16 17 17 17 16 13 14 17 13 12 15 30 44 42 50 58 63 61 60 61 61
58 56 54 50 44 35 27 19 31 56 47 64 88 91 42 23 32 8 12 9 7 13 20 17 16 18 16 20 20 18 22 18 16 12 25 26 39 49 51 57 63 61 61 62 63
62 58 54 51 42 32 28 35 52 88 98 94 82 62 37 16 25 21 16 10 13 16 17 18 17 20 21 22 28 21 17 16 16 13 24 29 37 51 53 57 60 60 59 61 63
66 60 54 50 38 37 25 39 37 36 57 44 47 38 22 16 15 17 14 12 11 16 23 19 25 28 21 18 16 15 15 17 15 13 22 29 36 55 53 55 61 61 60 62 61
64 59 54 50 33 44 31 35 36 35 47 27 26 23 21 19 19 15 12 13 17 19 17 18 23 21 18 18 17 16 16 16 14 13 18 28 34 50 51 52 54 58 60 60 58
60 55 52 48 30 39 52 33 33 42 39 20 18 16 15 18 22 18 15 14 17 20 18 19 17 15 17 18 17 17 18 15 15 15 16 32 39 40 51 47 47 47 48 51 51
56 52 51 53 30 43 43 29 34 44 27 19 14 12 14 20 25 14 18 13 16 18 18 18 13 15 16 17 18 23 14 13 13 16 20 29 46 44 42 54 50 49 48 46 44
57 50 48 58 71 82 24 29 38 26 38 17 12 9 13 13 10 16 16 16 18 17 18 20 17 15 17 15 16 17 13 15 16 17 18 20 34 34 38 45 44 43 44 44 43
55 49 46 61 83 38 39 31 31 22 33 17 11 11 13 11 9 14 15 14 14 16 16 16 13 14 15 13 13 13 13 13 18 22 27 18 25 22 50 35 34 33 36 37 39
54 44 43 73 66 36 41 43 27 33 18 20 22 20 18 12 10 12 17 20 21 23 23 18 16 12 12 15 15 15 17 24 21 27 23 18 30 19 26 32 27 30 30 32 32
58 41 44 46 55 63 60 34 36 23 23 23 25 23 18 22 12 13 18 20 19 16 22 25 25 17 13 15 16 18 17 29 24 30 21 21 29 23 19 24 26 22 26 26 30
58 44 57 43 44 58 62 51 35 30 26 31 26 30 34 29 26 27 24 18 18 15 18 26 24 13 13 11 12 15 17 13 16 23 23 24 20 16 16 20 28 27 23 26 28
74 87 70 42 44 58 75 69 45 30 29 32 36 37 46 38 33 36 30 18 18 20 13 16 18 13 11 12 12 12 12 14 21 21 22 20 21 20 18 17 28 31 29 26 29
76 94 40 37 46 71 87 78 48 34 29 35 39 42 39 39 33 36 34 27 32 34 25 17 16 14 12 14 14 15 14 14 16 17 17 18 15 13 17 19 21 28 29 28 29
94 93 32 48 63 77 86 73 50 40 39 38 34 37 41 44 45 34 36 32 36 40 54 42 23 17 14 13 9 10 12 16 17 18 18 14 14 11 13 14 19 18 26 26 26
100 99 50 48 86 73 62 54 51 52 51 45 44 43 47 46 46 53 51 41 39 42 58 54 46 23 17 14 13 14 13 12 13 15 15 16 15 11 12 14 16 20 25 26 30
98 96 85 72 66 74 79 61 68 53 48 42 43 48 54 50 57 59 53 46 41 40 46 48 52 38 30 20 18 17 14 12 13 16 14 13 12 12 12 13 12 17 22 30 33
94 92 85 95 85 92 73 64 74 80 64 49 49 52 63 71 69 63 53 60 47 45 48 56 61 43 40 34 29 23 16 12 14 12 14 12 13 11 14 15 13 13 13 28 29
92 96 80 86 75 86 78 69 72 69 79 77 62 51 55 69 65 72 66 68 66 52 54 58 61 54 44 29 28 25 16 14 12 11 12 11 14 11 10 13 11 11 13 17 23
77 80 95 93 83 82 78 71 69 64 66 70 53 57 55 54 62 59 59 58 54 57 59 59 62 62 59 39 37 30 18 15 12 12 11 13 11 11 10 11 12 11 16 18 16

GFSSW_925_rhum_021.txt.gz
RH
95 94 88 76 76 76 63 48 34 28 28 22 16 10 11 10 7 30 31 8 6 26 75 80 71 69 67 63 61 57 64 55 41 44 41 49 51 47 45 53 48 50 54 54 74
94 86 72 68 60 60 64 63 56 33 28 27 24 17 14 25 48 44 7 8 7 41 76 67 63 63 64 64 64 67 64 45 35 33 27 46 45 50 53 53 51 54 56 67 74
93 82 77 75 84 88 74 76 50 52 35 28 39 42 23 45 39 10 14 17 9 30 63 63 61 58 65 67 66 68 58 44 32 28 26 36 46 44 51 56 46 56 62 64 69
92 84 80 78 88 90 76 50 48 54 55 49 53 76 41 56 11 22 14 18 16 61 69 62 60 60 60 67 60 66 52 44 32 27 30 39 41 46 48 45 38 46 53 59 63
83 63 61 60 62 56 56 51 52 56 48 73 83 95 69 40 12 17 16 19 80 66 57 54 61 54 50 54 52 61 40 33 29 27 22 27 43 41 48 40 38 49 53 57 57
71 57 50 46 44 45 44 56 57 41 32 66 98 99 66 11 6 10 20 69 72 60 49 50 54 42 37 24 40 31 28 17 19 20 16 27 32 41 39 44 50 54 56 54 55
61 54 52 52 48 39 43 49 40 40 26 55 100 97 68 10 8 10 37 55 59 46 47 40 37 39 22 18 17 17 16 13 13 14 15 21 44 45 40 46 54 56 57 55 55
53 51 49 58 42 34 32 36 70 88 51 81 100 89 27 10 9 19 42 40 61 39 30 30 26 28 18 14 14 16 16 15 12 12 16 22 18 34 42 47 54 55 57 58 58
51 49 47 52 36 24 28 40 100 84 94 100 93 81 19 27 19 11 20 26 41 38 24 23 18 20 17 17 16 15 17 18 15 12 23 30 19 23 41 45 52 55 55 56 57
54 53 48 44 35 24 28 61 100 98 96 94 80 55 26 17 24 19 9 27 26 26 23 20 20 23 20 18 18 17 17 16 17 13 16 26 27 31 42 44 49 52 52 55 55
52 51 54 41 34 24 31 45 33 39 40 50 48 34 27 17 26 21 11 12 17 23 23 23 22 25 20 17 14 13 14 15 13 12 18 22 26 31 44 45 47 51 52 52 52
54 51 53 38 35 27 32 35 43 46 50 30 32 31 34 27 19 19 11 10 14 20 20 25 24 17 16 19 17 14 14 15 14 12 13 14 18 18 38 47 45 50 50 50 49
56 54 47 45 34 34 58 52 57 57 53 29 29 24 21 20 23 17 11 10 13 15 18 20 17 17 20 20 18 15 13 13 15 13 12 15 16 20 38 40 43 45 46 46 46
56 59 47 47 36 59 41 46 54 63 35 22 20 18 19 18 21 14 14 12 12 15 15 15 14 19 20 20 16 14 12 12 15 16 18 17 20 25 24 43 46 46 47 47 45
55 57 50 57 83 68 44 55 66 58 20 19 15 14 17 16 14 17 13 13 12 12 16 17 19 21 22 19 17 13 12 13 14 16 16 15 20 17 34 39 45 44 43 45 42
52 49 54 60 70 51 59 61 55 29 29 20 13 14 19 16 13 17 16 14 12 13 13 12 14 16 17 16 17 14 16 16 18 16 22 17 18 17 19 25 31 38 41 43 43
55 47 52 62 50 52 58 49 30 32 20 25 24 22 21 18 14 18 19 20 18 19 20 16 16 14 13 15 15 15 15 20 20 21 21 14 18 18 15 21 16 29 37 40 42
48 45 44 47 54 54 60 28 36 23 28 27 27 25 22 26 20 20 19 20 17 13 14 19 22 15 13 15 16 17 14 14 21 16 15 19 20 16 13 12 18 19 26 32 38
52 50 39 45 52 59 43 28 32 44 45 42 31 31 29 28 27 25 21 17 18 16 16 17 17 14 13 12 12 17 19 11 14 19 16 13 13 14 14 13 16 18 20 26 30
72 81 55 51 50 58 42 51 53 50 47 38 44 37 40 36 30 28 28 38 27 30 29 20 22 15 14 12 12 14 12 18 14 18 18 14 18 13 18 15 16 18 18 20 21
84 62 41 44 44 42 55 57 53 49 50 45 44 44 40 41 36 32 42 37 36 37 33 28 19 18 16 16 16 16 16 14 13 14 12 12 10 15 17 20 17 16 16 17 20
80 57 45 43 44 52 51 56 50 48 53 49 40 43 44 42 38 39 46 43 32 39 43 39 21 20 19 14 11 13 14 15 16 24 15 12 10 11 11 14 17 14 15 17 22
88 75 54 46 69 70 62 58 44 54 60 68 54 47 44 48 44 45 46 42 34 40 46 36 33 28 22 15 14 16 14 13 12 13 21 15 11 8 12 14 12 13 13 19 24
77 66 54 54 62 62 68 61 60 49 64 82 75 47 50 50 48 48 46 39 36 41 47 38 36 31 24 22 25 26 17 15 14 17 17 16 12 11 12 15 14 15 17 17 21
87 76 76 72 59 63 66 69 65 62 52 59 96 95 72 62 51 54 51 43 37 43 36 37 38 37 33 31 28 28 24 21 20 17 19 14 14 13 13 14 13 12 16 18 19
87 84 88 84 69 71 66 61 67 59 63 57 93 77 84 92 59 64 61 54 49 41 40 38 37 44 36 27 25 28 25 24 22 20 19 16 16 11 13 14 16 13 14 16 19
81 88 97 95 77 92 63 58 61 60 56 58 82 82 63 55 53 47 45 44 44 49 49 46 42 43 36 31 30 31 24 22 20 18 17 20 15 12 13 14 16 16 17 18 17

GFSSW_925_rhum_024.txt.gz
RH
95 96 95 95 95 93 88 69 58 44 50 40 28 37 26 10 8 52 21 11 13 21 64 59 58 53 48 41 43 41 40 30 27 28 30 32 36 34 33 39 36 36 36 45 55
95 94 94 95 95 95 95 92 57 51 52 63 45 29 34 17 45 21 12 11 7 25 44 48 50 45 44 38 40 44 35 26 22 21 22 26 32 38 37 38 37 41 37 49 54
92 78 58 65 81 91 90 77 72 68 63 67 68 37 23 32 26 7 15 17 8 21 29 37 36 36 33 34 37 35 34 24 22 20 19 22 32 32 33 37 34 44 47 48 51
86 63 51 53 56 72 69 64 58 74 72 80 90 66 23 53 11 16 15 22 13 27 27 30 32 36 32 39 32 38 30 28 22 20 19 19 24 33 31 28 28 35 41 45 47
63 55 51 47 43 45 47 48 49 42 41 68 96 85 59 23 9 15 15 17 45 31 27 27 34 29 27 27 29 38 26 23 21 20 18 15 22 26 31 29 27 35 40 43 43
63 53 50 48 38 37 39 48 37 28 38 83 99 96 39 16 6 7 25 36 41 31 27 24 27 22 22 23 28 23 26 22 14 13 14 14 19 24 26 29 33 38 39 39 40
56 50 47 40 34 33 32 31 29 39 91 100 99 79 36 12 7 9 26 32 37 33 24 22 22 25 18 22 15 21 22 13 12 12 13 11 16 25 23 31 36 37 38 37 38
47 44 42 39 32 27 24 32 53 67 90 91 99 64 26 14 13 16 23 31 37 32 22 22 23 23 18 12 12 15 14 16 13 12 11 13 18 20 24 32 36 37 38 38 38
50 48 39 36 29 26 21 50 99 77 99 99 74 46 20 19 12 10 24 25 32 28 25 22 22 22 19 20 15 12 16 16 15 12 13 16 17 15 23 28 33 37 38 38 39
52 48 40 36 28 26 25 68 98 89 81 79 55 41 20 13 12 8 21 16 29 26 22 21 21 15 17 19 21 16 15 14 15 13 12 14 17 14 20 25 28 35 36 38 38
54 42 39 35 29 26 41 33 33 46 32 32 27 20 18 12 17 9 11 16 22 26 20 15 15 16 12 12 12 11 13 14 12 12 14 15 14 14 19 26 26 33 36 37 37
55 44 39 32 34 31 35 24 36 40 36 18 18 19 23 22 19 10 10 16 17 24 14 16 18 11 10 9 11 12 12 13 12 11 12 13 14 13 16 25 26 30 34 35 34
50 40 39 32 31 36 37 41 45 42 33 17 16 16 16 17 18 15 8 11 15 17 14 14 12 10 10 12 13 12 13 12 13 12 11 13 15 14 11 15 22 24 28 30 34
49 40 41 33 32 42 31 36 45 44 31 12 16 17 15 15 18 12 7 10 11 15 12 12 10 12 12 13 12 13 10 10 11 13 18 12 19 15 13 15 18 22 25 28 31
46 39 38 48 56 35 40 44 48 43 16 14 14 13 13 15 12 13 12 7 8 11 12 14 12 13 14 14 11 11 6 8 10 11 13 14 16 15 13 15 14 18 20 26 27
46 43 38 47 44 39 42 47 45 31 17 15 12 14 16 16 13 12 15 8 8 9 10 11 8 10 12 11 11 10 9 8 10 10 16 15 16 16 14 15 14 16 20 25 27
44 50 60 53 37 41 42 34 25 19 12 20 18 15 13 13 15 14 16 18 18 16 15 12 11 10 10 13 11 12 12 15 14 13 15 12 14 15 11 10 12 12 14 22 26
40 50 46 48 38 42 38 27 25 15 26 24 23 21 20 14 14 13 16 17 15 13 12 15 16 11 10 12 13 14 11 11 16 11 10 11 15 13 10 10 10 10 10 16 24
47 37 33 32 38 45 33 22 16 42 38 37 25 23 18 18 18 16 14 16 14 12 15 14 14 9 10 10 10 14 14 8 8 10 10 8 10 9 9 10 10 10 10 11 20
59 36 29 32 35 37 31 27 32 34 35 32 35 28 30 24 24 19 14 21 14 12 13 14 16 10 10 9 9 10 10 11 9 15 15 9 10 11 11 12 11 11 10 10 15
41 30 31 34 29 21 27 30 30 25 33 36 37 36 32 32 28 21 21 27 24 16 24 16 14 13 11 12 12 11 12 10 9 9 11 11 8 7 9 11 11 10 10 10 13
38 28 34 33 25 27 32 38 39 28 27 34 33 30 34 34 32 28 32 30 26 27 28 18 16 18 14 10 9 9 11 11 12 16 11 10 7 6 7 7 10 9 10 9 10
44 39 34 31 38 38 34 34 31 34 45 49 50 39 34 38 40 34 35 30 26 28 29 23 20 20 17 13 11 12 11 10 10 9 16 13 8 7 10 11 11 11 10 11 12
44 38 28 30 34 40 45 39 38 30 37 36 87 56 48 32 31 37 34 29 25 28 41 34 22 20 18 17 14 15 12 11 11 13 12 12 10 9 8 10 10 9 9 10 13
46 42 50 48 46 50 50 39 43 49 35 32 83 94 91 54 34 34 36 31 26 28 24 26 29 27 21 22 19 14 13 12 13 13 14 10 11 10 9 9 10 9 10 9 11
51 57 54 66 52 47 46 45 42 46 44 45 52 68 63 94 66 65 48 36 35 30 29 24 32 30 28 22 21 20 18 15 13 12 13 12 12 9 8 10 11 10 11 11 10
65 61 73 61 56 52 46 51 56 46 42 40 42 45 45 55 55 46 36 33 34 39 34 32 28 33 30 22 22 26 20 18 17 15 15 17 14 12 12 12 12 11 10 10 11

GFSSW_925_rhum_027.txt.gz
RH
95 94 91 86 94 94 80 59 62 59 64 76 68 55 28 18 10 43 23 12 14 15 42 40 39 39 38 34 29 28 42 37 23 28 23 20 21 22 24 30 29 29 38 44 48
94 88 76 80 86 79 63 62 68 70 66 70 82 58 29 20 45 19 12 15 12 13 40 32 32 32 32 31 27 33 50 72 18 15 18 20 22 23 27 29 32 30 34 44 42
85 59 56 58 50 59 56 68 67 55 72 75 72 75 26 32 28 10 11 12 11 17 19 26 28 28 29 22 24 25 39 63 17 16 15 18 22 20 21 28 30 35 40 39 40
58 48 45 38 35 48 54 49 52 46 46 53 42 41 37 53 14 22 14 14 12 24 16 21 24 31 26 24 19 25 25 53 16 16 15 17 19 23 21 20 22 30 35 37 38
46 42 38 35 34 32 34 31 26 24 28 39 71 54 64 24 11 26 10 34 24 25 14 18 23 26 26 18 19 22 20 19 19 17 15 13 17 25 21 18 20 29 34 37 36
40 38 38 33 29 30 31 28 24 28 48 77 98 94 46 23 8 8 18 31 24 26 13 16 19 20 21 17 18 17 19 19 17 15 13 14 14 18 21 19 22 30 34 34 34
40 34 33 30 24 26 28 22 28 59 65 90 98 76 28 20 8 5 11 20 23 22 12 14 14 19 18 18 14 16 20 19 19 13 13 12 14 19 20 22 25 30 32 32 32
41 35 33 27 20 19 20 28 62 74 58 64 98 60 29 15 17 8 12 16 20 22 15 14 14 15 18 14 15 18 19 22 15 12 12 12 16 14 18 24 27 28 29 32 32
39 35 32 25 18 20 16 32 92 79 66 96 69 41 24 16 14 12 9 16 19 21 19 15 14 17 17 19 16 14 18 18 16 12 12 13 16 17 16 22 26 28 29 28 31
41 37 34 24 20 20 16 32 62 81 73 62 45 36 24 14 11 10 9 14 18 20 20 18 18 21 19 20 23 16 14 13 14 12 12 13 15 16 18 19 22 26 27 29 28
42 37 34 24 23 26 31 22 27 41 42 30 24 21 14 12 11 8 8 14 17 21 24 21 24 26 17 19 16 12 12 12 11 10 12 14 16 13 14 17 18 24 27 28 28
40 33 32 24 25 29 25 19 27 29 31 16 12 11 16 14 15 8 11 15 17 27 19 18 23 15 13 10 13 13 13 12 10 9 11 13 15 11 12 14 17 20 25 27 27
42 33 27 23 26 24 25 24 25 26 26 13 9 10 8 14 16 13 8 11 16 23 20 14 11 10 8 8 9 11 11 11 11 10 10 12 15 14 11 12 16 17 21 23 26
41 33 31 23 27 24 20 23 24 27 29 10 10 9 8 10 18 12 6 9 14 20 20 14 8 9 9 9 8 9 7 9 10 11 15 12 19 15 12 12 16 17 20 22 23
46 37 29 56 47 27 24 21 25 26 21 8 11 10 8 11 9 14 7 8 12 13 14 16 10 10 11 9 7 8 6 8 9 11 12 13 16 14 12 13 12 13 16 19 20
38 36 45 29 25 20 22 20 24 30 22 11 10 13 13 11 10 10 11 7 9 10 10 10 7 7 9 8 7 7 8 7 8 8 14 13 14 15 12 12 11 11 12 15 17
36 39 45 42 22 19 22 17 23 20 8 18 18 12 12 14 14 11 15 11 12 15 13 11 10 8 7 9 8 9 9 12 11 10 13 10 12 13 10 9 10 10 11 12 14
38 36 35 27 19 19 21 20 26 12 24 22 23 21 21 13 13 12 14 17 10 10 10 13 14 10 8 9 10 11 9 10 15 11 8 8 13 11 9 8 8 9 9 12 14
58 23 22 19 20 20 21 21 16 20 27 27 24 21 18 15 12 14 14 15 12 9 12 12 13 8 8 7 8 11 11 7 7 6 7 6 7 7 7 8 9 9 9 10 13
62 24 20 19 22 19 22 23 29 24 20 21 29 25 30 21 17 16 14 12 13 10 10 12 14 9 8 8 8 9 8 10 8 13 12 8 9 9 10 10 9 10 10 9 10
44 17 20 20 19 15 20 22 23 16 16 21 24 29 35 39 38 20 15 16 14 13 12 12 12 12 9 10 11 10 11 9 7 7 10 12 8 6 8 9 10 9 9 9 9
26 24 22 21 18 16 24 19 24 17 19 23 26 23 29 36 46 34 21 24 21 21 20 12 14 18 11 8 8 8 10 10 12 15 8 8 8 6 5 6 8 9 9 8 8
33 23 18 17 24 24 22 21 23 28 23 29 29 41 43 39 52 57 40 26 21 22 26 16 18 21 16 10 9 10 9 8 9 8 12 10 9 7 7 7 8 8 8 9 9
35 29 21 17 18 26 32 30 28 20 23 22 41 38 44 39 30 42 52 32 22 22 37 32 22 21 18 14 11 13 9 8 9 11 10 10 8 9 9 10 10 10 9 9 10
36 32 34 37 30 32 30 28 38 33 24 23 64 52 47 56 44 74 59 38 23 27 23 23 31 21 16 12 10 11 10 9 10 10 11 8 10 8 9 10 10 10 10 10 12
50 48 38 44 37 36 36 37 30 34 32 30 35 36 32 56 55 61 64 48 44 32 28 21 30 25 22 14 16 16 11 10 9 10 10 9 8 7 8 8 9 9 9 10 10
71 60 65 52 39 42 39 34 31 36 37 34 32 33 31 36 33 29 33 30 29 32 33 31 26 28 30 21 20 24 16 12 10 9 9 12 10 8 9 10 10 10 10 10 9

GFSSW_925_rhum_030.txt.gz
RH
92 75 61 50 51 66 70 71 68 51 79 68 56 46 26 28 23 44 26 12 15 17 12 31 26 35 38 37 39 35 61 66 61 39 43 21 28 28 24 28 30 36 46 51 52
75 55 44 43 59 60 64 65 66 67 48 78 73 45 37 42 66 31 15 16 13 14 17 25 24 28 35 34 30 35 91 70 43 40 34 23 20 23 26 28 34 43 44 47 51
46 39 35 36 35 34 33 35 59 61 42 27 42 36 30 63 40 12 10 11 13 15 15 20 20 24 32 28 26 27 60 37 34 31 18 22 19 19 22 29 37 48 46 44 50
35 34 32 30 30 25 19 20 29 23 24 29 31 41 30 65 21 15 9 10 12 16 14 15 20 26 31 28 22 25 48 53 36 29 15 28 40 20 26 26 29 38 38 42 47
36 34 32 27 24 23 19 19 18 18 29 49 62 88 68 35 18 12 14 11 20 14 16 14 20 25 30 25 21 20 36 32 50 39 13 25 47 37 32 20 26 33 36 37 41
34 33 30 25 23 17 18 18 17 22 55 80 94 98 52 35 16 13 21 28 15 14 14 12 15 19 24 23 20 18 17 25 30 29 14 14 27 31 31 19 27 33 36 34 35
36 35 28 21 18 16 16 16 21 39 58 69 100 86 33 24 13 7 11 22 17 15 13 11 11 16 20 23 17 15 19 17 18 16 14 12 14 19 29 20 25 32 35 33 32
39 35 27 20 14 15 14 16 28 50 62 76 99 72 34 18 18 16 5 12 14 16 13 10 11 13 16 17 18 18 16 23 18 16 13 12 16 21 27 21 26 29 32 33 32
36 32 24 17 14 16 21 23 28 53 71 96 84 48 28 18 18 15 8 8 13 17 16 11 10 13 14 21 24 19 22 20 20 15 14 12 15 13 22 20 27 27 30 32 33
40 35 28 15 12 22 25 22 31 60 78 68 54 41 28 17 13 14 12 8 12 15 17 16 15 16 16 19 30 23 20 17 20 16 13 13 14 15 17 39 26 28 27 30 31
36 32 24 17 10 23 28 19 15 36 19 30 27 23 14 13 10 11 11 7 11 17 24 20 22 21 18 17 17 17 16 14 12 12 14 13 15 17 24 54 41 27 29 28 29
32 29 27 12 13 25 25 18 17 17 22 14 14 14 16 17 14 10 10 10 15 23 21 23 25 18 15 15 17 17 16 13 10 9 10 13 13 14 25 46 43 29 42 28 26
34 31 26 18 20 20 17 18 16 16 22 16 11 11 10 10 15 12 9 10 14 20 24 24 20 16 16 17 15 17 17 14 12 9 9 13 14 14 17 16 18 20 28 24 26
38 29 28 27 22 27 16 14 14 15 23 11 8 7 7 6 12 12 7 9 14 18 22 22 15 16 17 16 14 16 13 12 12 12 13 10 17 18 14 14 15 16 21 22 25
32 26 29 27 44 24 14 13 13 16 29 8 7 8 6 7 7 12 10 9 16 14 18 22 17 14 14 14 10 10 7 10 10 11 11 11 14 13 14 15 14 16 19 30 23
36 32 39 34 27 18 13 13 13 24 24 12 11 15 10 7 6 8 14 8 12 12 13 17 14 11 9 8 7 6 6 7 7 9 15 12 13 15 14 16 12 14 14 19 21
37 35 39 44 24 14 13 13 18 25 10 15 21 18 18 15 8 8 15 15 13 18 18 16 16 12 8 9 7 7 8 12 13 13 14 11 13 14 11 13 12 11 12 14 19
39 40 31 32 15 14 14 16 25 15 27 20 17 17 20 16 14 10 12 17 10 11 14 17 18 13 8 8 10 8 8 12 20 14 11 9 13 12 9 8 10 10 10 12 15
41 39 24 18 13 16 17 21 38 31 24 20 17 19 26 24 27 16 12 15 12 10 17 15 15 10 8 7 8 10 11 7 9 8 9 7 8 7 8 8 9 8 10 11 13
68 43 31 18 13 15 19 21 23 19 16 15 24 20 31 26 33 33 23 11 13 10 9 13 15 9 9 8 7 8 8 11 9 17 15 9 11 10 11 11 10 10 9 10 12
48 23 17 17 15 16 19 17 18 13 15 21 20 22 31 58 46 45 34 22 20 12 10 10 12 11 9 11 10 9 10 10 8 9 12 13 8 7 12 11 11 10 10 10 12
44 33 17 15 17 13 16 17 22 27 18 17 15 18 38 47 58 59 56 53 32 22 20 11 11 15 13 8 8 8 10 11 13 18 10 11 9 6 8 9 9 9 10 10 11
45 29 17 15 21 19 17 17 15 29 25 19 20 22 25 39 63 69 69 55 36 29 31 26 19 20 18 11 9 10 9 10 10 9 16 12 9 7 8 9 10 10 11 12 14
49 40 27 24 19 24 24 21 26 24 38 20 19 25 29 37 37 70 68 58 40 31 43 29 28 23 20 17 11 13 10 9 10 13 12 10 11 10 9 8 10 12 12 12 16
50 42 38 45 34 30 26 31 54 35 34 19 27 36 31 36 45 44 47 44 46 37 27 23 32 23 16 13 11 10 10 10 11 11 14 10 9 12 12 12 11 11 14 13 15
90 87 62 57 41 33 30 38 36 28 22 25 30 29 23 29 41 52 51 47 73 40 31 27 33 27 25 16 15 15 10 10 9 9 9 9 8 10 12 13 13 15 14 15 16
79 76 92 63 46 43 38 32 29 30 28 23 39 26 24 24 29 25 23 24 32 36 32 33 34 34 34 24 20 20 13 10 9 8 8 11 10 10 13 13 14 13 12 12 11

GFSSW_925_rhum_033.txt.gz
RH
83 66 60 57 60 52 43 47 38 40 72 32 28 27 32 52 33 51 54 13 9 18 22 38 29 28 52 57 47 50 91 93 78 56 46 48 40 34 35 47 48 45 61 64 64
59 52 43 43 55 53 50 42 44 65 41 34 23 27 31 65 71 59 19 13 10 16 20 25 28 24 44 53 49 66 87 81 46 41 46 49 48 33 47 54 62 65 59 60 61
32 31 28 27 29 25 22 24 38 52 31 35 51 35 38 52 62 27 11 10 9 12 17 15 22 23 41 43 43 49 60 46 40 34 48 44 44 53 48 64 65 72 64 58 57
30 28 24 21 19 17 16 19 27 24 22 46 69 87 77 80 31 12 12 11 11 13 20 14 17 27 36 46 36 42 38 42 38 32 32 34 36 48 36 52 52 56 54 54 56
36 30 28 22 18 14 13 16 20 18 28 69 98 92 82 61 38 14 12 11 15 21 18 14 18 25 32 35 32 31 42 33 26 32 34 30 35 39 42 45 46 49 52 54 53
33 32 28 22 12 10 11 16 18 26 32 74 100 100 80 55 23 19 23 17 21 22 16 13 18 19 26 29 33 25 32 34 32 29 33 35 32 44 42 43 46 50 56 53 51
33 31 26 21 12 8 16 22 25 28 32 72 98 97 61 37 18 16 19 18 21 17 14 12 14 16 22 30 25 25 26 32 34 29 28 34 44 51 41 42 45 50 55 52 49
31 26 24 19 10 10 20 22 24 30 35 81 99 92 81 23 21 21 16 24 16 15 12 11 14 14 16 20 24 28 26 31 34 32 28 27 43 29 32 42 47 44 48 50 49
29 25 22 18 10 13 20 21 26 30 43 87 93 82 56 21 24 22 18 18 18 16 14 12 13 15 14 23 29 29 37 28 23 18 19 19 30 30 28 36 43 44 41 42 45
32 27 22 17 11 15 20 21 20 53 67 75 64 72 43 18 16 18 16 12 15 15 18 16 18 18 18 24 36 36 34 27 24 18 21 21 21 36 30 33 60 64 44 40 39
28 25 22 14 12 17 22 26 17 30 21 18 18 26 17 20 18 16 14 14 9 16 28 24 27 25 21 20 20 26 28 25 19 16 20 21 20 32 52 68 63 73 71 41 38
32 28 26 18 13 19 28 16 14 14 19 13 14 14 13 13 20 17 14 17 11 20 21 28 32 22 18 17 19 21 26 26 18 14 18 19 18 36 52 56 64 66 58 48 37
36 30 26 26 16 22 28 13 12 12 19 16 12 13 14 11 15 18 15 15 12 18 22 30 26 21 21 19 19 20 23 23 22 15 12 16 20 46 40 40 45 49 50 47 35
33 29 25 33 21 26 22 13 12 12 30 16 10 10 10 11 12 12 13 14 15 16 20 26 22 23 24 22 19 23 18 19 19 20 22 12 27 26 35 40 46 47 57 47 40
34 31 29 28 47 40 23 12 12 13 30 8 16 11 11 11 7 8 11 14 17 15 20 26 26 26 26 22 18 21 16 16 18 20 20 17 23 20 27 39 47 51 48 55 55
39 37 38 26 43 31 18 13 14 28 28 12 18 16 15 13 14 7 11 13 12 14 15 20 19 22 22 17 17 16 18 15 17 19 22 16 20 22 21 23 32 35 44 48 31
40 42 36 49 38 20 22 16 26 28 18 23 23 16 16 22 23 21 11 17 18 20 20 19 19 20 16 20 16 16 18 22 20 21 21 14 19 18 16 18 17 27 39 36 38
44 42 31 38 28 28 16 27 37 20 25 20 19 16 22 25 30 33 31 15 18 14 24 26 25 19 17 16 15 15 14 20 25 21 17 12 16 15 13 13 14 16 29 33 44
47 54 41 30 26 20 22 34 25 25 18 18 16 19 24 23 34 41 45 37 17 15 21 24 23 15 15 13 12 13 14 10 14 16 19 14 11 10 8 10 10 15 15 28 33
74 53 37 19 16 15 28 34 22 16 17 20 28 23 27 36 48 48 54 40 66 42 23 15 22 16 14 15 11 12 10 14 12 22 22 16 13 12 10 9 10 14 14 18 29
56 48 18 15 14 22 30 22 17 13 20 23 25 25 21 54 54 50 54 55 58 57 40 36 18 15 14 18 19 12 14 11 13 18 25 28 18 9 9 10 13 11 16 13 19
56 57 26 20 25 24 23 18 23 18 28 28 31 18 27 28 44 46 66 76 58 51 51 39 41 19 17 13 11 11 11 12 15 19 17 17 16 14 13 9 10 10 14 16 16
68 51 28 27 34 32 27 23 19 39 38 30 34 28 21 51 70 69 64 45 59 54 51 58 48 29 19 15 12 12 10 11 14 20 21 21 22 12 17 9 13 12 13 17 22
63 61 45 38 35 40 39 32 34 27 35 29 28 24 36 46 45 72 61 44 50 46 53 50 46 46 31 19 17 14 12 10 14 16 15 19 15 14 17 20 19 17 20 18 27
52 56 63 73 61 58 47 38 39 41 35 24 29 36 40 50 36 58 47 45 37 47 51 50 51 41 32 22 19 16 12 12 12 15 16 14 18 16 16 23 25 25 21 22 26
70 91 84 93 73 51 48 51 41 38 34 33 33 32 33 43 48 53 43 42 50 50 48 40 51 44 43 24 20 19 12 11 11 12 14 13 14 18 21 26 23 24 24 22 28
73 71 95 96 70 60 56 51 49 41 37 31 28 30 36 35 36 29 25 24 29 37 47 45 40 52 50 31 26 29 22 12 12 11 12 17 15 18 23 21 21 23 20 19 19

GFSSW_925_rhum_036.txt.gz
RH
74 66 48 48 53 52 53 56 43 69 68 38 29 29 54 66 58 50 73 14 8 46 37 42 60 47 64 66 64 78 81 82 70 77 84 76 59 53 55 59 51 53 65 59 61
45 38 35 35 42 46 38 51 70 68 42 29 22 53 58 72 81 78 19 12 9 10 36 48 47 32 70 66 65 74 89 71 56 55 57 85 68 66 59 59 66 72 62 58 57
32 30 28 23 23 21 28 32 33 29 24 29 48 76 84 67 80 41 12 15 12 11 18 38 31 28 37 52 65 71 84 62 54 48 38 47 54 52 66 77 72 82 70 60 58
28 24 21 21 17 14 14 24 24 22 26 34 58 100 83 76 31 14 13 14 16 16 18 19 17 33 38 54 49 61 58 53 46 36 34 37 47 56 51 64 59 66 63 62 65
26 23 20 18 13 10 12 17 22 24 26 35 83 99 81 78 48 15 23 20 23 22 26 22 20 26 39 41 45 51 48 43 37 34 34 32 41 40 47 56 56 58 61 64 63
24 21 20 16 12 10 13 18 20 24 35 46 91 98 83 57 12 16 18 24 22 30 24 19 18 18 28 32 42 37 40 36 32 34 33 36 35 42 61 58 61 59 62 61 62
22 21 19 15 10 10 15 18 20 23 33 46 99 94 85 41 12 20 24 24 23 23 25 18 14 19 21 31 25 28 39 33 35 32 33 31 37 54 59 59 63 64 62 60 58
27 22 19 14 10 11 16 18 21 26 35 58 99 90 88 20 20 22 16 26 31 19 14 17 14 18 20 19 18 33 35 46 34 29 30 34 45 52 56 60 65 62 59 58 57
34 28 23 14 10 13 18 20 16 38 58 76 93 87 89 30 40 22 24 21 26 27 16 13 14 21 20 22 26 31 42 41 34 32 30 36 38 54 56 62 65 63 60 58 57
29 27 23 15 10 16 23 15 14 47 65 81 79 85 47 20 17 14 20 21 21 20 19 17 19 26 24 30 34 37 43 37 36 25 32 36 34 58 55 58 66 65 60 58 58
33 34 30 18 12 18 25 14 16 20 15 18 18 36 21 15 11 16 17 21 22 22 30 25 25 29 24 23 23 28 33 36 28 22 21 26 40 59 53 55 62 67 64 59 56
35 35 36 22 16 22 27 19 16 14 22 13 13 14 14 13 16 13 15 22 22 27 25 35 32 22 23 20 22 24 28 33 28 24 23 26 41 49 52 54 56 59 59 56 52
30 29 34 27 18 22 29 20 19 13 22 19 14 14 14 14 17 15 14 21 22 22 25 33 30 24 24 24 23 24 27 27 32 25 20 20 45 41 45 50 51 52 49 50 45
24 24 33 29 22 34 32 17 20 15 35 25 18 14 12 12 15 15 10 18 22 18 18 26 25 24 28 25 21 28 20 21 23 27 34 18 44 61 55 56 51 46 49 52 46
21 20 38 38 36 48 16 23 22 18 21 18 19 13 12 20 20 21 20 16 24 23 17 22 23 29 28 27 23 24 19 20 21 27 27 25 26 64 56 62 56 49 48 44 48
22 20 48 38 39 16 22 25 19 29 34 19 17 17 14 18 19 24 25 25 16 22 20 16 20 23 26 22 23 20 22 23 23 27 37 26 24 26 64 55 47 40 43 39 45
21 30 36 27 26 20 31 27 31 32 20 24 21 18 16 23 22 30 35 42 46 31 28 21 18 18 23 28 24 24 31 39 38 34 34 22 24 20 39 38 40 40 39 41 42
21 38 46 30 21 27 38 36 41 23 26 19 23 21 24 21 28 32 37 47 58 68 29 28 28 19 18 28 30 28 27 41 48 37 28 19 23 19 15 26 26 35 35 41 42
23 41 38 22 24 35 33 46 34 23 20 25 25 30 28 32 33 41 44 48 52 64 90 33 24 16 16 19 24 26 30 21 21 20 22 18 13 10 11 11 22 37 40 42 42
58 61 43 26 25 29 36 45 30 17 22 24 32 30 35 45 43 48 47 38 49 53 58 61 48 16 16 17 19 21 17 22 23 24 26 22 18 13 11 10 13 32 38 41 43
66 76 37 29 21 33 39 36 20 30 29 33 38 42 30 36 44 55 48 45 55 60 61 60 65 28 16 20 22 23 18 16 18 23 23 26 16 12 12 14 10 27 29 37 39
90 90 38 32 35 40 40 31 30 39 37 32 33 34 31 56 44 44 48 66 46 56 86 61 79 83 28 15 15 18 18 15 16 21 25 25 16 12 10 10 10 12 34 35 34
99 91 41 34 70 67 48 44 31 42 42 41 37 30 32 60 59 58 61 46 46 61 93 90 84 96 35 20 16 16 20 14 18 18 20 18 15 12 12 15 15 10 15 28 31
98 91 74 68 58 66 80 65 52 32 35 33 35 32 38 45 53 56 61 49 44 43 65 85 87 90 73 39 34 19 17 16 13 18 16 16 15 14 14 15 16 10 17 22 25
88 83 88 95 81 90 86 66 59 57 38 33 37 40 40 49 44 55 43 40 42 59 74 84 83 58 50 40 40 38 19 17 16 14 16 14 15 15 17 26 22 19 22 26 30
93 87 92 89 92 86 71 65 65 72 62 51 65 45 35 48 50 60 46 47 54 56 72 64 70 56 51 40 37 27 21 21 13 13 16 17 16 13 15 28 28 31 30 29 32
77 79 94 97 93 97 72 68 68 56 73 57 64 59 51 47 41 44 44 44 45 57 66 63 63 69 71 47 30 33 34 24 13 13 13 20 16 21 32 51 55 24 23 34 34

GFSSW_925_rhum_042.txt.gz
RH
47 38 45 47 62 52 36 22 23 23 24 25 27 32 42 91 74 71 81 19 12 19 38 98 83 81 81 84 74 60 86 88 72 72 70 74 71 65 63 60 56 60 72 74 89
31 31 29 31 34 30 24 23 22 22 24 29 33 36 83 99 79 88 9 15 12 42 75 93 85 76 75 85 81 86 88 73 53 60 64 61 70 65 68 64 74 80 76 84 84
31 29 28 22 20 18 19 21 23 27 27 34 48 50 99 79 79 31 42 28 14 57 52 62 53 67 72 76 83 86 91 60 47 57 49 59 66 65 66 73 74 85 88 81 78
32 29 29 22 16 12 14 19 26 27 29 42 46 62 89 70 13 27 20 26 20 64 51 48 57 57 85 86 73 87 74 63 54 48 56 62 58 65 64 65 63 71 75 76 74
26 25 28 27 19 13 14 23 22 23 22 42 39 74 68 46 29 28 40 44 45 63 49 42 53 43 68 74 57 80 71 60 57 56 54 50 56 59 64 64 60 66 70 72 68
20 20 24 26 24 14 17 22 20 19 34 40 45 84 72 25 19 28 49 48 53 53 37 29 46 33 42 49 64 48 52 55 51 52 48 51 53 55 61 61 65 69 69 64 65
19 17 20 22 25 15 22 19 17 19 49 42 87 86 76 43 30 28 45 45 49 44 31 25 23 30 29 34 33 42 45 39 36 44 49 39 62 63 70 61 67 68 62 59 65
20 17 17 19 24 17 20 15 15 29 54 64 95 81 77 30 29 16 16 26 40 37 22 24 18 24 25 24 23 36 36 50 38 36 36 42 59 66 73 69 69 64 59 59 65
21 17 16 18 24 17 16 16 20 53 59 94 89 84 28 16 16 12 14 24 43 37 25 19 18 21 23 30 39 33 57 50 44 37 38 42 54 78 75 74 72 65 60 58 65
20 18 16 22 24 20 14 15 29 52 78 76 81 51 19 15 13 13 14 33 40 40 34 24 26 28 36 42 59 45 41 44 45 34 42 47 50 82 75 78 76 70 62 60 63
21 17 18 31 22 19 16 25 33 28 24 18 18 20 16 12 13 18 18 20 29 33 45 28 33 29 24 33 33 34 40 43 37 30 45 48 50 85 78 76 80 78 72 65 64
23 18 19 32 19 18 20 30 30 32 33 18 16 16 14 13 18 19 20 25 33 41 32 33 35 24 18 20 29 30 29 34 32 28 37 41 48 77 80 78 75 77 75 69 65
22 18 18 30 19 19 26 25 30 31 26 21 16 15 14 15 20 22 25 26 20 35 37 39 28 21 21 25 25 28 35 30 33 27 28 36 45 76 76 72 70 69 67 67 66
20 16 22 27 20 26 23 28 36 27 29 19 19 15 15 17 17 19 20 26 21 29 37 37 26 26 23 24 27 35 25 27 26 31 40 33 53 70 82 80 75 73 71 67 64
18 16 31 37 29 31 24 34 28 18 26 21 19 13 15 19 19 20 19 30 35 35 27 38 33 32 32 22 23 23 23 27 27 34 32 30 40 55 78 91 81 74 69 65 62
17 16 39 41 36 26 31 35 20 24 29 24 20 20 24 24 26 27 29 42 44 55 40 30 20 24 28 24 20 23 26 31 32 37 43 34 33 41 87 75 73 66 66 63 61
17 16 37 41 40 35 35 24 27 29 22 26 26 25 27 37 38 35 50 75 77 55 81 58 38 20 18 28 25 30 31 55 53 53 45 34 34 36 34 60 59 62 58 59 59
19 17 41 41 34 36 24 28 31 25 26 22 25 26 32 38 40 43 42 74 73 76 88 94 49 29 23 26 33 32 35 55 62 57 39 36 45 35 22 40 50 51 50 51 54
25 23 40 40 30 34 31 42 37 25 25 28 26 35 36 39 36 44 51 64 79 75 89 94 81 50 38 29 24 36 41 33 44 38 48 30 30 20 22 24 44 46 47 50 50
47 64 48 36 31 28 39 44 36 33 32 28 35 34 43 38 45 52 48 43 80 71 72 76 93 59 47 39 27 31 30 43 49 55 48 40 28 34 25 29 32 41 44 46 46
64 61 41 37 27 38 49 43 32 33 31 34 40 40 43 41 51 62 49 46 51 68 66 82 94 68 56 51 32 31 38 38 35 45 47 39 33 25 25 22 28 29 44 41 43
87 34 44 37 60 77 67 66 49 36 36 37 36 40 42 49 52 55 59 51 65 70 82 74 99 95 72 52 50 58 35 41 42 46 42 41 33 15 18 20 20 19 40 42 40
96 97 49 42 85 91 83 75 60 43 43 41 40 38 34 47 55 58 56 51 66 77 84 84 97 92 78 45 41 45 33 31 33 36 40 44 43 17 15 15 18 17 22 37 41
94 86 82 82 85 87 94 85 72 45 51 55 44 38 40 48 58 50 59 61 67 62 56 76 97 97 89 62 64 66 52 31 36 34 40 36 33 27 22 16 16 16 18 28 46
93 88 93 92 89 94 92 84 81 71 61 60 55 68 76 68 50 64 57 51 65 63 75 89 99 89 78 80 75 69 59 49 48 36 34 28 28 25 24 22 22 21 21 21 32
93 93 90 91 88 86 94 96 89 85 92 83 95 71 81 100 74 66 52 57 61 78 83 91 98 96 94 66 61 61 47 44 42 38 26 19 20 37 19 41 71 82 80 53 33
83 88 91 86 83 87 94 95 95 96 89 88 92 97 97 82 61 56 50 54 63 82 92 100 100 97 92 56 52 62 51 59 63 67 60 29 42 68 59 93 97 92 91 95 60

GFSSW_925_rhum_045.txt.gz
RH
34 35 36 29 21 16 16 19 21 23 25 26 33 67 80 93 91 88 52 21 18 17 85 88 78 75 69 67 70 58 76 76 58 59 58 61 64 68 56 62 53 55 59 64 87
26 27 30 26 23 19 18 19 23 26 24 23 45 76 87 100 89 71 22 42 19 28 77 71 65 65 63 69 70 72 76 62 46 42 51 62 59 63 64 59 70 67 57 75 84
20 20 25 24 24 17 20 22 24 22 22 22 42 59 96 88 59 25 31 35 29 51 68 59 56 51 59 62 69 65 68 54 42 43 47 59 60 58 60 64 63 71 72 76 75
17 16 20 21 23 17 19 25 22 20 19 29 33 58 81 68 13 23 38 29 29 67 75 46 55 55 51 64 62 74 63 58 54 42 46 54 51 54 55 51 50 58 64 71 66
17 16 17 17 20 18 19 24 20 17 20 42 34 71 70 33 16 27 50 61 62 59 52 36 50 43 40 51 58 68 64 55 52 47 46 44 48 49 53 53 51 58 65 64 60
17 16 16 17 20 20 19 21 16 17 43 40 46 63 62 16 23 37 54 62 55 55 42 36 34 36 38 55 45 40 54 52 46 44 43 47 42 45 53 55 61 64 65 60 57
19 15 15 18 23 19 18 17 15 19 52 37 68 78 43 26 25 20 29 54 54 50 36 34 31 28 29 27 34 39 49 39 38 34 41 37 44 51 55 56 64 64 63 58 55
20 17 14 19 26 18 18 15 17 41 45 67 87 80 28 20 17 14 21 44 48 50 26 27 25 29 24 22 21 26 30 37 34 36 34 34 43 45 56 58 64 62 61 60 55
21 18 13 21 25 19 16 17 27 44 67 88 76 69 13 12 13 16 15 27 45 49 27 20 20 23 24 28 27 30 19 28 28 31 34 35 39 51 56 56 62 62 59 56 55
20 16 13 25 21 19 22 27 31 48 63 85 68 31 12 13 12 15 20 39 38 30 22 21 23 23 23 24 22 25 23 34 28 32 33 38 36 58 60 56 59 60 55 54 53
22 19 16 30 19 20 25 30 22 20 22 17 15 16 12 12 14 14 21 31 30 23 21 25 22 26 20 22 18 28 32 24 33 28 34 35 35 53 63 62 61 59 55 52 51
23 20 16 30 18 19 22 25 30 32 25 17 15 14 13 14 16 12 19 27 35 35 24 24 23 17 16 18 24 21 30 30 28 28 33 34 35 34 60 62 61 58 54 52 49
24 16 15 30 19 21 28 29 38 32 22 15 14 13 13 14 19 16 19 23 27 36 34 28 22 18 20 18 20 22 21 28 28 24 25 29 33 32 54 56 58 57 52 49 48
20 16 23 29 20 29 28 34 39 33 18 19 16 14 12 15 16 15 21 25 21 28 32 33 26 22 20 19 17 18 15 21 27 29 32 28 43 34 34 60 61 58 58 54 50
22 18 32 36 31 28 30 40 29 17 19 19 17 13 14 15 18 17 24 26 29 29 31 31 30 31 30 24 18 18 15 16 16 27 31 29 36 32 39 48 55 56 54 53 52
34 24 36 41 36 35 40 30 20 20 21 22 17 18 20 22 25 22 36 34 39 37 38 28 26 23 26 22 18 17 18 19 17 16 26 32 33 31 33 44 45 47 51 52 52
41 30 35 42 41 34 36 20 21 22 20 24 21 20 25 28 28 27 49 52 45 19 34 30 21 20 18 24 22 22 25 31 31 30 21 17 32 30 24 32 33 41 49 50 50
44 27 39 41 37 35 24 22 30 23 24 21 21 23 26 25 31 29 40 50 51 50 48 42 11 32 37 22 24 26 25 28 35 28 16 16 32 28 21 20 28 31 36 46 49
50 36 45 44 34 34 23 29 26 25 22 24 24 26 28 30 24 28 40 57 59 56 38 50 46 37 30 35 32 24 31 20 23 31 27 15 17 20 20 20 19 28 35 44 47
64 56 47 40 34 29 32 37 29 28 27 25 27 26 29 29 29 31 34 43 60 57 50 57 27 36 40 34 26 31 19 33 29 36 33 22 20 18 22 22 21 22 30 37 41
60 32 38 38 28 28 36 38 31 28 30 28 29 28 29 30 32 36 30 41 52 61 53 50 45 22 29 34 30 26 30 27 26 29 28 26 21 16 17 23 21 22 22 28 36
79 20 41 38 43 55 50 61 54 34 32 32 31 29 31 34 38 38 34 28 44 51 56 55 78 66 30 21 26 34 51 28 33 41 32 29 21 16 16 16 17 16 19 20 31
79 76 43 45 59 65 66 63 56 46 44 41 37 34 32 34 39 39 41 38 52 48 59 64 73 47 18 17 26 36 33 39 26 26 37 36 28 16 18 18 18 18 16 27 31
74 52 51 55 66 79 83 72 66 46 51 53 48 37 37 39 45 41 44 56 52 45 58 58 72 52 35 26 43 58 44 42 36 31 36 32 26 20 20 19 16 17 18 19 30
74 81 82 80 69 78 76 73 74 68 61 58 66 59 67 64 50 49 43 42 58 51 64 66 71 56 53 47 46 50 51 48 51 34 33 31 30 24 22 22 20 19 17 20 20
77 86 80 76 82 81 85 83 82 81 84 88 82 73 95 97 61 56 49 46 44 51 63 72 66 60 60 36 45 58 49 46 44 40 31 27 26 29 30 26 23 25 42 43 41
86 86 92 84 82 86 86 96 93 92 91 78 92 100 100 94 85 68 54 53 48 51 58 79 81 73 54 37 52 59 45 42 40 33 29 28 24 47 45 56 66 66 65 65 64

GFSSW_925_rhum_048.txt.gz
RH
20 21 24 25 27 22 14 17 21 23 22 27 39 92 91 82 77 78 27 23 25 23 68 57 55 52 47 53 48 51 56 54 42 43 50 47 57 58 60 56 45 43 43 49 69
18 16 17 18 22 30 18 16 24 21 20 22 36 60 79 87 61 36 25 36 29 48 57 49 47 44 42 43 46 52 44 38 33 32 37 45 56 49 51 48 52 49 47 63 67
17 16 15 15 19 27 18 20 24 21 18 19 37 33 49 72 34 24 32 42 50 59 41 38 34 36 31 36 40 42 44 37 32 31 35 47 51 43 42 49 46 51 66 66 64
18 16 14 14 20 28 21 21 22 17 18 37 34 38 41 60 14 18 44 26 33 46 39 33 30 30 27 37 34 42 38 39 35 34 37 41 37 41 45 40 37 42 53 58 53
18 16 14 13 22 25 20 20 20 16 26 40 34 43 66 23 11 25 51 76 40 45 37 30 30 25 25 23 27 36 37 41 42 38 34 41 41 44 42 38 37 40 49 51 46
17 16 13 12 25 24 18 18 16 16 39 36 43 50 39 13 23 24 42 45 35 39 35 24 24 19 20 20 23 20 26 42 41 34 35 41 34 35 35 38 42 45 49 45 44
18 16 13 13 28 21 18 16 15 26 31 46 63 67 14 15 19 20 29 37 35 31 26 21 19 20 15 20 20 20 31 26 33 36 34 30 33 35 39 41 46 47 48 44 42
19 16 12 14 26 18 18 15 22 32 39 48 61 53 16 16 18 13 21 34 37 33 25 23 21 17 16 14 13 18 16 25 22 27 28 30 36 34 39 41 48 47 46 46 42
20 16 12 18 23 19 21 22 33 29 44 66 52 34 11 12 11 13 15 27 31 30 23 24 20 20 19 16 13 12 13 17 22 25 27 30 29 38 37 38 45 48 46 45 44
21 15 12 24 18 20 29 27 21 64 60 61 40 19 9 11 11 14 23 28 27 29 18 16 19 18 17 14 14 12 13 13 18 25 28 30 28 37 38 37 42 46 46 46 43
19 16 14 28 18 21 33 34 28 15 11 13 12 11 10 11 11 16 22 26 24 30 25 15 19 19 13 13 10 14 13 14 17 19 30 30 27 30 39 37 43 44 46 45 43
21 21 16 31 19 22 24 18 26 25 16 11 11 10 10 12 11 11 19 25 22 25 19 18 18 12 12 12 14 12 19 21 17 19 26 28 28 23 36 38 40 42 42 42 40
37 30 18 32 20 24 21 25 34 28 16 12 11 10 10 10 12 11 15 18 25 20 18 18 13 11 12 15 16 15 13 14 20 22 20 27 30 26 26 35 36 37 37 38 37
44 37 21 26 21 25 20 30 33 31 14 15 13 11 10 11 13 10 14 18 19 25 22 17 12 16 15 16 13 14 10 11 13 20 27 22 33 28 24 34 37 38 37 36 36
47 42 23 35 38 20 30 34 27 18 12 15 13 10 10 11 12 12 16 14 17 18 24 22 21 20 21 18 13 14 10 10 11 13 20 25 31 25 22 28 35 34 35 34 36
47 43 22 46 40 31 34 30 19 17 14 17 13 14 14 14 15 12 17 17 21 16 20 19 19 20 18 17 17 15 15 14 13 11 13 19 26 26 22 24 23 28 30 33 34
45 34 31 46 29 35 36 17 16 14 15 18 15 14 15 17 16 15 20 19 16 13 16 17 19 18 17 20 18 18 19 22 22 17 13 10 17 24 18 17 21 22 26 29 32
45 37 41 45 36 36 27 17 22 15 16 16 15 16 17 17 18 17 20 19 23 20 14 13 13 15 24 20 20 21 18 22 28 16 12 9 13 14 15 16 16 20 20 25 29
52 41 32 32 36 36 21 20 15 18 16 17 17 19 18 19 18 18 21 22 26 23 18 17 14 22 21 24 23 21 22 15 18 16 14 9 9 7 10 15 16 17 19 21 27
55 35 27 36 34 26 22 23 21 19 19 19 24 20 23 20 23 22 19 26 28 26 21 25 16 13 18 18 19 25 15 22 20 31 29 17 15 10 12 17 16 16 17 20 25
41 25 28 36 28 22 27 27 28 21 23 24 25 24 23 23 23 23 21 24 27 31 26 23 21 16 14 9 11 20 25 23 19 20 25 25 16 10 10 11 16 16 15 16 22
37 18 32 34 31 33 34 42 48 27 24 25 26 25 26 25 27 27 27 20 27 27 27 27 27 33 17 8 10 14 27 21 24 29 22 22 18 9 11 10 10 13 14 14 17
40 32 34 31 41 41 43 40 41 36 33 35 32 28 26 30 35 27 25 19 27 27 28 33 32 33 13 10 12 15 14 22 25 25 30 27 23 13 13 14 12 11 11 15 16
40 38 36 38 48 61 64 51 46 37 39 42 41 36 37 36 27 33 29 29 29 26 42 33 26 32 21 14 16 28 26 21 25 31 28 26 23 18 16 14 14 14 14 12 13
44 52 54 62 55 56 53 55 60 60 42 39 46 48 55 65 45 37 35 34 33 32 42 40 59 34 28 25 23 21 17 24 36 36 39 26 22 19 18 16 14 14 14 15 16
53 64 60 63 67 56 60 60 64 73 76 65 65 55 75 96 56 52 52 42 39 39 43 39 55 37 34 26 26 24 17 15 21 29 33 32 31 21 16 17 16 14 15 18 22
74 80 76 79 67 71 72 92 86 78 70 68 73 90 94 90 78 79 54 60 70 52 53 58 56 51 43 24 20 24 19 20 17 22 29 36 26 19 21 23 21 20 20 28 31